NOAA 16 DEB, 41365

Orbit data source: Space-Track

NOAA 16 DEB, 41365 is space debris in SSO originally from a launch on Thu, 21 Sep 2000 UTC launched from the Air Force Western Test Range (AFWTR). Debris objects in space refer to the collection of defunct objects orbiting the Earth. Examples of debris include non-operational satellites, rocket bodies, and fragments generated from explosions, collisions, or faulty payload assembly.

Loading next visibility...
Identifier
41365, 2000-055JJ
Orbit
SSO
Country
Flag of USUS
Related business
Manufacturer
Unknown
Mission
Spacecraft
Bus & Motor
Unknown
Mass
Unknown
Launch date (UTC)
2000-09-21 (25 years ago)
Launch vehicle
Unknown
Launch site
Air Force Western Test Range (AFWTR)
Object type
Payload
Rocket body
Debris
Shape & HBR
Unknown shape, 0.1 m
Radar Cross Section
Small (<0.1 m²)

Expand to show TLE details & history
Last TLE update: 17 hours ago

TLE from 17 hours ago
0 NOAA 16 DEB
1 41365U 00055JJ  25286.73140691  .00015832  00000-0  38903-2 0  9997
2 41365  98.9282  93.9490 0029308 140.3120 220.0225 14.52131059503749
Epoch: 2025-10-13T17:33Z
TLE epoch observation values (Epoch: 2025-10-13T17:33:13.557Z)
Latitude
-0.00006°
Longitude
168.11254°
Altitude
737.604 km
Speed
7.478 km/s
True Right ascension
06h 15m 47s
True Declination
0° 00' 00"
Sunlit
Object was in daylight at epoch
Visualization orbit readout
Latitude
Unknown
Longitude
Unknown
Altitude
Unknown
Speed
Unknown
Apparent Right ascension
Unknown
Apparent Declination
Unknown
Sunlit
N/A
Visualization observer readout
Local Sidereal Time
05:18:37
Azimuth
Unknown
Elevation
Unknown
Doppler factor
Unknown
Orbital elements
Apogee altitude
736.614 km
Perigee altitude
695.032 km
Semi-major axis
7,093.96 km
Eccentricity
0.00293
Inclination
98.9282°
RAAN
93.949°
Arg. of periapsis
140.312°
True anomaly
219.80713°
Mean anomaly
220.0225°
Eccentric anomaly
219.91475°
Mean motion
3.63254 °/min
Orbital period
99.1 mins
BSTAR
0.0038903
Loading maneuver chart data...
Computing Atmospheric mass density...
Loading historical data...
Loading historical data...
Loading historical data...
Loading historical data...
Loading historical data...
Loading historical data...
Loading historical data...

Documentation

Showing up to 5 results
|